Location: *
(46.1006°N, 1.8394°E)
Time: 22:11:38
(UTC+00:00)

USA 32 - Pass Details

Date: 20 September 2019
Orbit: 777 x 783 km, 85.0° (Epoch: 21 September)

Event Time Altitude Azimuth Distance (km) Brightness Sun altitude
Rises 18:22:27 0° 353° (N) 3,271 7.5 -5.6°
Reaches altitude 10° 18:24:49 10° 353° (N) 2,340 6.7 -6.0°
Maximum altitude 18:30:04 83° 266° (W) 791 4.2 -6.9°
Drops below altitude 10° 18:35:18 10° 180° (S) 2,326 6.4 -7.8°
Sets 18:37:38 0° 179° (S) 3,250 7.1 -8.2°
